Time,TemperatureF,DewpointF,PressureIn,WindDirection,WindDirectionDegrees,WindSpeedMPH,WindSpeedGustMPH,Humidity,HourlyPrecipIn,Conditions,Clouds,dailyrainin,SoftwareType,DateUTC
2013-02-16 00:01:00,46.6,19.8,30.25,SSW,202,2.0,4.0,34,0.00,,CLR,0.00,VWS V14.01,2013-02-16 08:01:00,
2013-02-16 00:11:00,47.3,19.7,30.25,SSW,202,3.0,4.0,33,0.00,,CLR,0.00,VWS V14.01,2013-02-16 08:11:00,
2013-02-16 00:21:00,47.4,19.0,30.25,SSW,202,2.0,4.0,32,0.00,,CLR,0.00,VWS V14.01,2013-02-16 08:21:00,
2013-02-16 00:31:00,47.2,18.9,30.25,SSW,203,4.0,6.0,32,0.00,,CLR,0.00,VWS V14.01,2013-02-16 08:31:00,
2013-02-16 00:41:00,46.2,19.4,30.26,SSW,203,4.0,5.0,34,0.00,,CLR,0.00,VWS V14.01,2013-02-16 08:41:00,
2013-02-16 00:51:00,45.4,18.7,30.25,SSW,203,3.0,6.0,34,0.00,,CLR,0.00,VWS V14.01,2013-02-16 08:51:00,
2013-02-16 01:01:00,45.1,18.4,30.26,SSW,203,3.0,4.0,34,0.00,,CLR,0.00,VWS V14.01,2013-02-16 09:01:00,
2013-02-16 01:11:00,44.8,18.8,30.25,SSW,203,4.0,5.0,35,0.00,,CLR,0.00,VWS V14.01,2013-02-16 09:11:00,
2013-02-16 01:21:00,44.6,18.7,30.25,SSW,203,3.0,5.0,35,0.00,,CLR,0.00,VWS V14.01,2013-02-16 09:21:00,
2013-02-16 01:31:00,44.3,19.0,30.26,SSW,203,4.0,5.0,36,0.00,,CLR,0.00,VWS V14.01,2013-02-16 09:31:00,
2013-02-16 01:41:00,43.7,18.5,30.25,SSW,203,3.0,5.0,36,0.00,,CLR,0.00,VWS V14.01,2013-02-16 09:41:00,
2013-02-16 01:51:00,43.3,18.8,30.25,SSW,203,3.0,4.0,37,0.00,,CLR,0.00,VWS V14.01,2013-02-16 09:51:00,
2013-02-16 02:01:00,43.3,18.8,30.25,SSW,203,3.0,4.0,37,0.00,,CLR,0.00,VWS V14.01,2013-02-16 10:01:00,
2013-02-16 02:11:00,43.8,18.6,30.25,SSW,203,4.0,5.0,36,0.00,,CLR,0.00,VWS V14.01,2013-02-16 10:11:00,
2013-02-16 02:21:00,43.8,18.6,30.25,SSW,203,3.0,5.0,36,0.00,,CLR,0.00,VWS V14.01,2013-02-16 10:21:00,
2013-02-16 02:31:00,43.8,18.6,30.24,SSW,203,1.0,5.0,36,0.00,,CLR,0.00,VWS V14.01,2013-02-16 10:31:00,
2013-02-16 02:41:00,43.9,18.0,30.24,SSW,203,2.0,5.0,35,0.00,,CLR,0.00,VWS V14.01,2013-02-16 10:41:00,
2013-02-16 02:51:00,44.2,18.3,30.24,SSW,203,4.0,7.0,35,0.00,,CLR,0.00,VWS V14.01,2013-02-16 10:51:00,
2013-02-16 03:01:00,44.9,18.9,30.24,SSW,202,2.0,6.0,35,0.00,,CLR,0.00,VWS V14.01,2013-02-16 11:01:00,
2013-02-16 03:11:00,44.3,19.0,30.23,SSW,202,3.0,6.0,36,0.00,,CLR,0.00,VWS V14.01,2013-02-16 11:11:00,
2013-02-16 03:21:00,43.9,19.3,30.23,SSW,202,3.0,6.0,37,0.00,,CLR,0.00,VWS V14.01,2013-02-16 11:21:00,
2013-02-16 03:31:00,44.3,19.7,30.23,SSW,202,3.0,4.0,37,0.00,,CLR,0.00,VWS V14.01,2013-02-16 11:31:00,
2013-02-16 03:41:00,44.3,19.7,30.23,SSW,202,3.0,4.0,37,0.00,,CLR,0.00,VWS V14.01,2013-02-16 11:41:00,
2013-02-16 03:51:00,43.6,19.1,30.22,SSW,202,4.0,5.0,37,0.00,,CLR,0.00,VWS V14.01,2013-02-16 11:51:00,
2013-02-16 04:01:00,43.6,19.1,30.23,SSW,202,5.0,8.0,37,0.00,,CLR,0.00,VWS V14.01,2013-02-16 12:01:00,
2013-02-16 04:11:00,43.1,19.2,30.22,SSW,202,3.0,7.0,38,0.00,,CLR,0.00,VWS V14.01,2013-02-16 12:11:00,
2013-02-16 04:21:00,42.2,19.0,30.22,SSW,192,6.0,6.0,39,0.00,,CLR,0.00,VWS V14.01,2013-02-16 12:21:00,
2013-02-16 04:31:00,41.7,18.6,30.23,SSW,192,5.0,6.0,39,0.00,,CLR,0.00,VWS V14.01,2013-02-16 12:31:00,
2013-02-16 04:41:00,41.8,18.7,30.22,SSW,193,3.0,6.0,39,0.00,,CLR,0.00,VWS V14.01,2013-02-16 12:41:00,
2013-02-16 04:51:00,42.0,18.9,30.22,SSW,192,2.0,5.0,39,0.00,,CLR,0.00,VWS V14.01,2013-02-16 12:51:00,
2013-02-16 05:01:00,43.0,20.4,30.22,SSW,193,3.0,5.0,40,0.00,,CLR,0.00,VWS V14.01,2013-02-16 13:01:00,
2013-02-16 05:11:00,42.8,20.2,30.22,SSW,192,2.0,4.0,40,0.00,,CLR,0.00,VWS V14.01,2013-02-16 13:11:00,
2013-02-16 05:21:00,43.3,20.0,30.22,SSW,193,4.0,5.0,39,0.00,,CLR,0.00,VWS V14.01,2013-02-16 13:21:00,
2013-02-16 05:31:00,42.3,19.7,30.22,SSW,192,3.0,6.0,40,0.00,,CLR,0.00,VWS V14.01,2013-02-16 13:31:00,
2013-02-16 05:41:00,41.8,19.8,30.21,SSW,192,3.0,5.0,41,0.00,,CLR,0.00,VWS V14.01,2013-02-16 13:41:00,
2013-02-16 05:51:00,41.2,19.3,30.22,SSW,192,2.0,6.0,41,0.00,,CLR,0.00,VWS V14.01,2013-02-16 13:51:00,
2013-02-16 06:01:00,40.6,19.3,30.22,SSW,193,2.0,6.0,42,0.00,,CLR,0.00,VWS V14.01,2013-02-16 14:01:00,
2013-02-16 06:11:00,40.8,18.9,30.22,SSW,193,2.0,5.0,41,0.00,,CLR,0.00,VWS V14.01,2013-02-16 14:11:00,
2013-02-16 06:21:00,40.4,19.1,30.22,SSW,192,4.0,5.0,42,0.00,,CLR,0.00,VWS V14.01,2013-02-16 14:21:00,
2013-02-16 06:31:00,39.7,19.0,30.22,SSW,193,4.0,6.0,43,0.00,,CLR,0.00,VWS V14.01,2013-02-16 14:31:00,
2013-02-16 06:41:00,39.9,19.2,30.22,SSW,193,4.0,6.0,43,0.00,,CLR,0.00,VWS V14.01,2013-02-16 14:41:00,
2013-02-16 06:51:00,41.0,19.7,30.22,SSW,193,3.0,5.0,42,0.00,,CLR,0.00,VWS V14.01,2013-02-16 14:51:00,
2013-02-16 07:01:00,42.9,20.3,30.23,SSW,192,4.0,6.0,40,0.00,,CLR,0.00,VWS V14.01,2013-02-16 15:01:00,
2013-02-16 07:11:00,41.9,20.5,30.23,SSW,193,3.0,5.0,42,0.00,,CLR,0.00,VWS V14.01,2013-02-16 15:11:00,
2013-02-16 07:21:00,42.9,21.4,30.23,SSW,192,4.0,6.0,42,0.00,,CLR,0.00,VWS V14.01,2013-02-16 15:21:00,
2013-02-16 07:31:00,45.0,22.1,30.23,SSW,193,3.0,5.0,40,0.00,,CLR,0.00,VWS V14.01,2013-02-16 15:31:00,
2013-02-16 07:41:00,46.8,22.5,30.23,SSW,193,0.0,4.0,38,0.00,,CLR,0.00,VWS V14.01,2013-02-16 15:41:00,
2013-02-16 07:51:00,48.7,23.0,30.23,SSW,193,0.0,3.0,36,0.00,,CLR,0.00,VWS V14.01,2013-02-16 15:51:00,
2013-02-16 08:01:00,49.3,22.1,30.23,SSW,209,5.0,8.0,34,0.00,,FEW250,0.00,VWS V14.01,2013-02-16 16:01:00,
2013-02-16 08:11:00,50.3,23.0,30.23,SSW,207,6.0,7.0,34,0.00,,FEW250,0.00,VWS V14.01,2013-02-16 16:11:00,
2013-02-16 08:21:00,50.4,23.1,30.22,South,182,4.0,6.0,34,0.00,,FEW250,0.00,VWS V14.01,2013-02-16 16:21:00,
2013-02-16 08:31:00,50.6,23.3,30.22,SW,225,1.0,6.0,34,0.00,,FEW250,0.00,VWS V14.01,2013-02-16 16:31:00,
2013-02-16 08:41:00,51.6,22.7,30.22,SSW,205,4.0,5.0,32,0.00,,FEW250,0.00,VWS V14.01,2013-02-16 16:41:00,
2013-02-16 08:51:00,52.6,23.6,30.22,South,184,4.0,6.0,32,0.00,,FEW250,0.00,VWS V14.01,2013-02-16 16:51:00,
2013-02-16 09:01:00,53.5,22.9,30.21,South,172,6.0,6.0,30,0.00,,SCT250,0.00,VWS V14.01,2013-02-16 17:01:00,
2013-02-16 09:11:00,54.4,23.6,30.21,SSE,157,0.0,7.0,30,0.00,,SCT250,0.00,VWS V14.01,2013-02-16 17:11:00,
2013-02-16 09:21:00,55.0,23.4,30.21,SW,225,1.0,7.0,29,0.00,,SCT250,0.00,VWS V14.01,2013-02-16 17:21:00,
2013-02-16 09:31:00,54.6,23.0,30.21,South,182,0.0,7.0,29,0.00,,SCT250,0.00,VWS V14.01,2013-02-16 17:31:00,
2013-02-16 09:41:00,55.3,23.6,30.21,ESE,113,2.0,7.0,29,0.00,,SCT250,0.00,VWS V14.01,2013-02-16 17:41:00,
2013-02-16 09:51:00,56.0,23.4,30.20,SE,146,5.0,8.0,28,0.00,,SCT250,0.00,VWS V14.01,2013-02-16 17:51:00,
2013-02-16 10:01:00,56.7,23.1,30.20,ESE,115,4.0,7.0,27,0.00,,SCT250,0.00,VWS V14.01,2013-02-16 18:01:00,
2013-02-16 10:11:00,57.6,23.9,30.19,SE,136,1.0,6.0,27,0.00,,SCT250,0.00,VWS V14.01,2013-02-16 18:11:00,
2013-02-16 10:21:00,58.7,23.0,30.19,ENE,76,4.0,6.0,25,0.00,,SCT250,0.00,VWS V14.01,2013-02-16 18:21:00,
2013-02-16 10:31:00,59.0,23.2,30.18,ENE,66,1.0,6.0,25,0.00,,SCT250,0.00,VWS V14.01,2013-02-16 18:31:00,
2013-02-16 10:41:00,59.1,22.4,30.18,East,95,2.0,8.0,24,0.00,,SCT250,0.00,VWS V14.01,2013-02-16 18:41:00,
2013-02-16 10:51:00,59.7,23.9,30.17,ESE,119,5.0,7.0,25,0.00,,SCT250,0.00,VWS V14.01,2013-02-16 18:51:00,
2013-02-16 11:01:00,59.6,23.8,30.17,ESE,111,7.0,8.0,25,0.00,,BKN250,0.00,VWS V14.01,2013-02-16 19:01:00,
2013-02-16 11:11:00,59.0,23.2,30.17,SSE,148,5.0,7.0,25,0.00,,BKN250,0.00,VWS V14.01,2013-02-16 19:11:00,
2013-02-16 11:21:00,59.0,23.2,30.16,NE,56,4.0,9.0,25,0.00,,BKN250,0.00,VWS V14.01,2013-02-16 19:21:00,
2013-02-16 11:31:00,59.5,23.7,30.15,SE,124,4.0,7.0,25,0.00,,BKN250,0.00,VWS V14.01,2013-02-16 19:31:00,
2013-02-16 11:41:00,58.9,23.2,30.14,East,96,1.0,6.0,25,0.00,,BKN250,0.00,VWS V14.01,2013-02-16 19:41:00,
2013-02-16 11:51:00,60.2,25.2,30.14,ESE,115,5.0,7.0,26,0.00,,BKN250,0.00,VWS V14.01,2013-02-16 19:51:00,
2013-02-16 12:01:00,61.3,24.2,30.12,ESE,113,0.0,6.0,24,0.00,,BKN250,0.00,VWS V14.01,2013-02-16 20:01:00,
2013-02-16 12:11:00,62.0,23.8,30.12,ENE,74,0.0,6.0,23,0.00,,BKN250,0.00,VWS V14.01,2013-02-16 20:11:00,
2013-02-16 12:21:00,61.9,23.7,30.11,ENE,63,4.0,6.0,23,0.00,,BKN250,0.00,VWS V14.01,2013-02-16 20:21:00,
2013-02-16 12:31:00,61.9,24.7,30.10,ENE,74,4.0,6.0,24,0.00,,BKN250,0.00,VWS V14.01,2013-02-16 20:31:00,
2013-02-16 12:41:00,62.3,24.1,30.09,ENE,63,5.0,8.0,23,0.00,,BKN250,0.00,VWS V14.01,2013-02-16 20:41:00,
2013-02-16 12:51:00,62.2,24.0,30.08,NE,55,1.0,6.0,23,0.00,,BKN250,0.00,VWS V14.01,2013-02-16 20:51:00,
2013-02-16 13:01:00,62.5,24.2,30.08,NE,42,0.0,7.0,23,0.00,,BKN250,0.00,VWS V14.01,2013-02-16 21:01:00,
2013-02-16 13:11:00,62.0,23.8,30.07,ENE,75,2.0,7.0,23,0.00,,BKN250,0.00,VWS V14.01,2013-02-16 21:11:00,
2013-02-16 13:21:00,61.5,23.4,30.06,ENE,69,2.0,5.0,23,0.00,,BKN250,0.00,VWS V14.01,2013-02-16 21:21:00,
2013-02-16 13:31:00,61.0,23.0,30.06,SE,128,0.0,6.0,23,0.00,,BKN250,0.00,VWS V14.01,2013-02-16 21:31:00,
2013-02-16 13:41:00,61.9,22.7,30.05,ESE,105,0.0,5.0,22,0.00,,BKN250,0.00,VWS V14.01,2013-02-16 21:41:00,
2013-02-16 13:51:00,62.0,23.8,30.05,NE,48,1.0,6.0,23,0.00,,BKN250,0.00,VWS V14.01,2013-02-16 21:51:00,
2013-02-16 14:01:00,62.3,23.0,30.04,NE,49,0.0,4.0,22,0.00,,BKN250,0.00,VWS V14.01,2013-02-16 22:01:00,
2013-02-16 14:11:00,62.2,24.0,30.03,ESE,107,1.0,6.0,23,0.00,,BKN250,0.00,VWS V14.01,2013-02-16 22:11:00,
2013-02-16 14:21:00,62.4,23.1,30.03,NE,55,0.0,6.0,22,0.00,,BKN250,0.00,VWS V14.01,2013-02-16 22:21:00,
2013-02-16 14:31:00,63.1,23.7,30.02,NE,55,0.0,3.0,22,0.00,,BKN250,0.00,VWS V14.01,2013-02-16 22:31:00,
2013-02-16 14:41:00,64.1,23.4,30.02,NE,55,0.0,3.0,21,0.00,,BKN250,0.00,VWS V14.01,2013-02-16 22:41:00,
2013-02-16 14:51:00,64.3,23.6,30.01,NE,55,3.0,4.0,21,0.00,,BKN250,0.00,VWS V14.01,2013-02-16 22:51:00,
2013-02-16 15:01:00,63.6,24.1,30.01,NE,37,4.0,5.0,22,0.00,,BKN250,0.00,VWS V14.01,2013-02-16 23:01:00,
2013-02-16 15:11:00,64.1,23.4,30.00,NNE,32,3.0,5.0,21,0.00,,BKN250,0.00,VWS V14.01,2013-02-16 23:11:00,
2013-02-16 15:21:00,63.5,22.9,30.00,NE,41,1.0,5.0,21,0.00,,BKN250,0.00,VWS V14.01,2013-02-16 23:21:00,
2013-02-16 15:31:00,63.1,22.6,29.99,NE,42,3.0,4.0,21,0.00,,BKN250,0.00,VWS V14.01,2013-02-16 23:31:00,
2013-02-16 15:41:00,63.6,23.0,29.98,NE,41,2.0,3.0,21,0.00,,BKN250,0.00,VWS V14.01,2013-02-16 23:41:00,
2013-02-16 15:51:00,64.4,22.5,29.98,NE,40,0.0,2.0,20,0.00,,BKN250,0.00,VWS V14.01,2013-02-16 23:51:00,
2013-02-16 16:01:00,64.5,21.4,29.98,NE,40,0.0,1.0,19,0.00,,OVC250,0.00,VWS V14.01,2013-02-17 00:01:00,
2013-02-16 16:11:00,64.1,21.0,29.97,NE,40,0.0,0.0,19,0.00,,OVC250,0.00,VWS V14.01,2013-02-17 00:11:00,
2013-02-16 16:21:00,63.6,21.8,29.97,NE,40,0.0,2.0,20,0.00,,OVC250,0.00,VWS V14.01,2013-02-17 00:21:00,
2013-02-16 16:31:00,63.6,21.8,29.96,NE,40,0.0,3.0,20,0.00,,OVC250,0.00,VWS V14.01,2013-02-17 00:31:00,
2013-02-16 16:41:00,62.6,22.1,29.96,NE,40,1.0,3.0,21,0.00,,OVC250,0.00,VWS V14.01,2013-02-17 00:41:00,
2013-02-16 16:51:00,61.6,21.3,29.96,NE,40,0.0,2.0,21,0.00,,OVC250,0.00,VWS V14.01,2013-02-17 00:51:00,
2013-02-16 17:01:00,60.9,21.8,29.95,NE,40,0.0,0.0,22,0.00,,OVC250,0.00,VWS V14.01,2013-02-17 01:01:00,
2013-02-16 17:11:00,60.2,22.3,29.95,NE,40,0.0,0.0,23,0.00,,OVC250,0.00,VWS V14.01,2013-02-17 01:11:00,
2013-02-16 17:21:00,59.3,21.5,29.95,NE,40,0.0,0.0,23,0.00,,OVC250,0.00,VWS V14.01,2013-02-17 01:21:00,
2013-02-16 17:31:00,58.7,21.0,29.95,NE,40,0.0,0.0,23,0.00,,OVC250,0.00,VWS V14.01,2013-02-17 01:31:00,
2013-02-16 17:41:00,56.6,22.1,29.95,NE,40,2.0,2.0,26,0.00,,OVC250,0.00,VWS V14.01,2013-02-17 01:41:00,
2013-02-16 17:51:00,55.4,22.0,29.95,NE,40,0.0,2.0,27,0.00,,OVC250,0.00,VWS V14.01,2013-02-17 01:51:00,
2013-02-16 18:01:00,55.0,21.6,29.94,NE,40,0.0,0.0,27,0.00,,BKN250,0.00,VWS V14.01,2013-02-17 02:01:00,
2013-02-16 18:11:00,54.5,22.9,29.94,NE,40,3.0,3.0,29,0.00,,BKN250,0.00,VWS V14.01,2013-02-17 02:11:00,
2013-02-16 18:21:00,53.3,23.5,29.94,NE,40,3.0,3.0,31,0.00,,BKN250,0.00,VWS V14.01,2013-02-17 02:21:00,
2013-02-16 18:31:00,52.4,21.9,29.94,SE,136,2.0,5.0,30,0.00,,BKN250,0.00,VWS V14.01,2013-02-17 02:31:00,
2013-02-16 18:41:00,51.0,21.5,29.95,SE,138,4.0,6.0,31,0.00,,BKN250,0.00,VWS V14.01,2013-02-17 02:41:00,
2013-02-16 18:51:00,51.2,21.6,29.94,SE,142,2.0,6.0,31,0.00,,BKN250,0.00,VWS V14.01,2013-02-17 02:51:00,
2013-02-16 19:01:00,51.2,21.6,29.94,SE,142,4.0,5.0,31,0.00,,BKN250,0.00,VWS V14.01,2013-02-17 03:01:00,
2013-02-16 19:11:00,51.3,21.7,29.94,SSE,163,7.0,7.0,31,0.00,,BKN250,0.00,VWS V14.01,2013-02-17 03:11:00,
2013-02-16 19:21:00,49.5,20.9,29.94,SSW,213,5.0,8.0,32,0.00,,BKN250,0.00,VWS V14.01,2013-02-17 03:21:00,
2013-02-16 19:31:00,49.6,21.0,29.93,SW,214,3.0,7.0,32,0.00,,BKN250,0.00,VWS V14.01,2013-02-17 03:31:00,
2013-02-16 19:41:00,49.8,21.1,29.93,SW,214,2.0,6.0,32,0.00,,BKN250,0.00,VWS V14.01,2013-02-17 03:41:00,
2013-02-16 19:51:00,50.0,21.3,29.93,SW,214,5.0,6.0,32,0.00,,BKN250,0.00,VWS V14.01,2013-02-17 03:51:00,
2013-02-16 20:01:00,50.2,21.5,29.93,SW,214,4.0,5.0,32,0.00,,BKN250,0.00,VWS V14.01,2013-02-17 04:01:00,
2013-02-16 20:11:00,50.0,21.3,29.93,SW,214,3.0,6.0,32,0.00,,BKN250,0.00,VWS V14.01,2013-02-17 04:11:00,
2013-02-16 20:21:00,50.0,21.3,29.93,SW,214,3.0,5.0,32,0.00,,BKN250,0.00,VWS V14.01,2013-02-17 04:21:00,
2013-02-16 20:31:00,50.0,21.3,29.92,SW,214,3.0,4.0,32,0.00,,BKN250,0.00,VWS V14.01,2013-02-17 04:31:00,
2013-02-16 20:41:00,50.2,20.8,29.92,SW,214,4.0,7.0,31,0.00,,BKN250,0.00,VWS V14.01,2013-02-17 04:41:00,
2013-02-16 20:51:00,51.0,20.7,29.92,SW,215,3.0,6.0,30,0.00,,BKN250,0.00,VWS V14.01,2013-02-17 04:51:00,
2013-02-16 21:01:00,49.7,20.3,29.92,SW,215,3.0,4.0,31,0.00,,BKN250,0.00,VWS V14.01,2013-02-17 05:01:00,
2013-02-16 21:11:00,48.5,20.0,29.91,SW,214,3.0,4.0,32,0.00,,BKN250,0.00,VWS V14.01,2013-02-17 05:11:00,
2013-02-16 21:21:00,47.9,20.2,29.91,SW,215,3.0,5.0,33,0.00,,BKN250,0.00,VWS V14.01,2013-02-17 05:21:00,
2013-02-16 21:31:00,49.0,20.4,29.91,SW,217,5.0,6.0,32,0.00,,BKN250,0.00,VWS V14.01,2013-02-17 05:31:00,
2013-02-16 21:41:00,50.9,20.6,29.91,SW,217,4.0,5.0,30,0.00,,BKN250,0.00,VWS V14.01,2013-02-17 05:41:00,
2013-02-16 21:51:00,51.6,20.4,29.91,SW,225,4.0,7.0,29,0.00,,BKN250,0.00,VWS V14.01,2013-02-17 05:51:00,
2013-02-16 22:01:00,50.3,20.8,29.91,SW,225,2.0,6.0,31,0.00,,SCT250,0.00,VWS V14.01,2013-02-17 06:01:00,
2013-02-16 22:11:00,49.0,18.9,29.91,SW,222,3.0,7.0,30,0.00,,SCT250,0.00,VWS V14.01,2013-02-17 06:11:00,
2013-02-16 22:21:00,47.8,19.4,29.90,SW,222,4.0,6.0,32,0.00,,SCT250,0.00,VWS V14.01,2013-02-17 06:21:00,
2013-02-16 22:31:00,47.1,18.8,29.90,SW,222,3.0,6.0,32,0.00,,SCT250,0.00,VWS V14.01,2013-02-17 06:31:00,
2013-02-16 22:41:00,46.6,19.0,29.89,SW,221,3.0,6.0,33,0.00,,SCT250,0.00,VWS V14.01,2013-02-17 06:41:00,
2013-02-16 22:51:00,46.8,19.2,29.89,SW,221,2.0,5.0,33,0.00,,SCT250,0.00,VWS V14.01,2013-02-17 06:51:00,
2013-02-16 23:01:00,47.2,18.9,29.88,SW,221,3.0,4.0,32,0.00,,SCT250,0.00,VWS V14.01,2013-02-17 07:01:00,
2013-02-16 23:11:00,47.8,18.6,29.88,SW,221,2.0,4.0,31,0.00,,SCT250,0.00,VWS V14.01,2013-02-17 07:11:00,
2013-02-16 23:21:00,47.3,19.7,29.88,SW,221,2.0,3.0,33,0.00,,SCT250,0.00,VWS V14.01,2013-02-17 07:21:00,
2013-02-16 23:31:00,47.1,18.8,29.88,SW,221,1.0,3.0,32,0.00,,SCT250,0.00,VWS V14.01,2013-02-17 07:31:00,
2013-02-16 23:41:00,46.6,20.4,29.88,SW,221,1.0,3.0,35,0.00,,SCT250,0.00,VWS V14.01,2013-02-17 07:41:00,
2013-02-16 23:51:00,47.0,20.1,29.88,SW,221,0.0,1.0,34,0.00,,SCT250,0.00,VWS V14.01,2013-02-17 07:51:00,